This is the latest recevied weather packets stored in our database for station/object K3RUP-1. If no packets are shown the sender has not sent any weather packets the latest 10 day(s).
| Time | Temp. | Humidity | Pressure | Rain* | Wind** | Luminosity | Snow |
|---|---|---|---|---|---|---|---|
| 1788365664 | 26.67° C | 84% | 1018.5 hPa | 0 mm | - | 166 W/m² | - |
| 1788365360 | 26.67° C | 84% | 1018.3 hPa | 0 mm | - | 395 W/m² | - |
| 1788365055 | 26.67° C | 84% | 1018 hPa | 0 mm | - | 255 W/m² | - |
| 1788364753 | 26.67° C | 85% | 1017.9 hPa | 0 mm | - | 309 W/m² | - |
| 1788364449 | 26.67° C | 84% | 1018.2 hPa | 0 mm | - | 237 W/m² | - |
| 1788364143 | 26.67° C | 84% | 1017.7 hPa | 0 mm | - | 303 W/m² | - |
| 1788363839 | 26.67° C | 85% | 1018.1 hPa | 0 mm | - | 418 W/m² | - |
| 1788363537 | 26.67° C | 85% | 1017.9 hPa | 0 mm | - | 306 W/m² | - |
| 1788363251 | 26.67° C | 85% | 1018 hPa | 0 mm | - | 285 W/m² | - |
| 1788362932 | 26.11° C | 86% | 1018.1 hPa | 0 mm | - | 230 W/m² | - |
| 1788362628 | 25.56° C | 87% | 1018.2 hPa | 0 mm | - | 265 W/m² | - |
| 1788362323 | 25.56° C | 88% | 1018.2 hPa | 0 mm | - | 199 W/m² | - |
| 1788362018 | 25.56° C | 88% | 1018.1 hPa | 0 mm | - | 190 W/m² | - |
| 1788361713 | 25.56° C | 89% | 1018.3 hPa | 0 mm | - | 173 W/m² | - |
| 1788361409 | 25° C | 90% | 1018.3 hPa | 0 mm | - | 205 W/m² | - |
| 1788361109 | 25° C | 90% | 1018.5 hPa | 0 mm | - | 165 W/m² | - |
| 1788360804 | 25° C | 90% | 1018.6 hPa | 0 mm | - | 145 W/m² | - |
| 1788360500 | 25° C | 90% | 1018.5 hPa | 0 mm | - | 130 W/m² | - |
| 1788360196 | 25° C | 90% | 1018.5 hPa | 0 mm | - | 87 W/m² | - |
| 1788359890 | 25° C | 90% | 1018.5 hPa | 0 mm | - | 94 W/m² | - |
| 1788359584 | 25° C | 91% | 1018.3 hPa | 0 mm | - | 94 W/m² | - |
| 1788359275 | 25° C | 90% | 1018.5 hPa | 0 mm | - | 111 W/m² | - |
| 1788358971 | 25° C | 90% | 1018.5 hPa | 0 mm | - | 117 W/m² | - |
| 1788358670 | 24.44° C | 91% | 1018.5 hPa | 0 mm | - | 155 W/m² | - |
| 1788358367 | 24.44° C | 92% | 1018.2 hPa | 0 mm | - | 173 W/m² | - |
* Rain latest hour (hover to see other rain measurements)
** Current wind speed in m/s (hover to see current wind gust speed)